Weather History for Midlothian, TX

Change the Weather History Date:

Monday, September 30, 2013

  Actual Average (KRBD) Record (KRBD)
Temperature  
Mean Temperature 70 °F -  
Max Temperature 84 °F 81 °F 97 °F (1997)
Min Temperature 57 °F 59 °F 46 °F (1999)
Cooling Degree Days 6    
Growing Degree Days 20 (Base 50)    
Moisture  
Dew Point 54 °F    
Average Humidity 58    
Maximum Humidity 90    
Minimum Humidity 29    
Precipitation  
Precipitation 0.00 in - - ()
Sea Level Pressure  
Sea Level Pressure 29.90 in    
Wind  
Wind Speed 1 mph (SSE)    
Max Wind Speed 8 mph    
Max Gust Speed -    
Visibility 10 miles    
Events      
Averages and records for this station are not official NWS values.
T = Trace of Precipitation, MM = Missing Value Source: NWS Daily Summary

Daily Weather History Graph

Daily Weather History Graph

Search for Another Location

Airport:

Trip Planner

Search our weather history database for the weather conditions in past years. The results will help you decide how hot, cold, wet, or windy it might be!

Date:

Astronomy

Sep. 30, 2013 Rise Set
Actual Time 7:21 AM CDT 7:13 PM CDT
Civil Twilight 6:56 AM CDT 7:37 PM CDT
Nautical Twilight 6:28 AM CDT 8:06 PM CDT
Astronomical Twilight 5:59 AM CDT 8:34 PM CDT
Moon 3:12 AM CDT (9/30) 4:33 PM CDT (9/30)
Length of Visible Light 12h 41m
Length of Day
11h 52m
Waning Crescent, 19% of the Moon is Illuminated
Sep 30
Waning Crescent
Oct 4
New
Oct 11
First Quarter
Oct 18
Full
Oct 26
Last Quarter

Hourly Weather History & Observations

Time (CDT) Temp. Heat Index Dew Point Humidity Pressure Visibility Wind Dir Wind Speed Gust Speed Precip Events Conditions
12:15 AM 65.5 °F - 55.4 °F 70% 29.95 in 10.0 mi Calm Calm - N/A   Scattered Clouds
12:35 AM 65.3 °F - 54.9 °F 69% 29.95 in 10.0 mi Calm Calm - N/A   Clear
12:55 AM 64.8 °F - 56.5 °F 74% 29.95 in 10.0 mi Calm Calm - N/A   Clear
1:15 AM 64.4 °F - 53.8 °F 68% 29.95 in 10.0 mi Calm Calm - N/A   Clear
1:35 AM 64.6 °F - 54.0 °F 68% 29.94 in 10.0 mi Calm Calm - N/A   Clear
1:55 AM 63.5 °F - 56.3 °F 77% 29.94 in 10.0 mi Calm Calm - N/A   Clear
2:15 AM 62.4 °F - 55.8 °F 79% 29.94 in 10.0 mi Calm Calm - N/A   Clear
2:35 AM 63.3 °F - 55.4 °F 75% 29.93 in 10.0 mi Calm Calm - N/A   Clear
2:55 AM 63.3 °F - 54.1 °F 72% 29.93 in 10.0 mi Calm Calm - N/A   Clear
3:15 AM 63.3 °F - 54.0 °F 71% 29.93 in 10.0 mi Calm Calm - N/A   Clear
3:35 AM 61.9 °F - 55.8 °F 80% 29.92 in 10.0 mi Calm Calm - N/A   Clear
3:55 AM 62.8 °F - 53.4 °F 71% 29.92 in 10.0 mi Calm Calm - N/A   Clear
4:15 AM 62.2 °F - 53.6 °F 73% 29.92 in 10.0 mi Calm Calm - N/A   Clear
4:35 AM 61.0 °F - 54.7 °F 80% 29.92 in 10.0 mi Calm Calm - N/A   Clear
4:55 AM 59.5 °F - 56.5 °F 90% 29.91 in 10.0 mi Calm Calm - N/A   Clear
5:15 AM 60.3 °F - 54.9 °F 82% 29.91 in 10.0 mi Calm Calm - N/A   Clear
5:35 AM 60.1 °F - 52.2 °F 75% 29.91 in 10.0 mi Calm Calm - N/A   Clear
5:55 AM 60.1 °F - 51.1 °F 72% 29.91 in 10.0 mi Calm Calm - N/A   Clear
6:15 AM 58.3 °F - 51.1 °F 77% 29.91 in 10.0 mi Calm Calm - N/A   Clear
6:35 AM 58.5 °F - 50.0 °F 73% 29.92 in 10.0 mi Calm Calm - N/A   Clear
6:55 AM 57.6 °F - 50.4 °F 77% 29.92 in 10.0 mi Calm Calm - N/A   Clear
7:15 AM 57.0 °F - 49.5 °F 76% 29.92 in 10.0 mi Calm Calm - N/A   Clear
7:35 AM 58.1 °F - 49.6 °F 73% 29.92 in 10.0 mi Calm Calm - N/A   Clear
7:55 AM 58.1 °F - 51.1 °F 77% 29.92 in 10.0 mi Calm Calm - N/A   Clear
8:15 AM 59.2 °F - 53.6 °F 82% 29.93 in 10.0 mi WNW 3.5 mph - N/A   Clear
8:35 AM 61.3 °F - 52.9 °F 74% 29.93 in 10.0 mi NNW 3.5 mph - N/A   Clear
8:55 AM 65.3 °F - 53.1 °F 65% 29.93 in 10.0 mi Calm Calm - N/A   Clear
9:15 AM 67.8 °F - 53.2 °F 60% 29.92 in 10.0 mi Calm Calm - N/A   Clear
9:35 AM 69.8 °F - 54.1 °F 57% 29.92 in 10.0 mi West 4.6 mph - N/A   Clear
9:55 AM 71.6 °F - 52.7 °F 51% 29.93 in 10.0 mi West 4.6 mph - N/A   Clear
10:15 AM 73.4 °F - 51.3 °F 46% 29.93 in 10.0 mi West 3.5 mph - N/A   Clear
10:35 AM 74.5 °F - 50.7 °F 43% 29.93 in 10.0 mi Calm Calm - N/A   Clear
10:55 AM 75.9 °F - 50.4 °F 41% 29.93 in 10.0 mi Calm Calm - N/A   Clear
11:15 AM 76.8 °F - 50.2 °F 39% 29.93 in 7.0 mi Calm Calm - N/A   Clear
11:35 AM 77.4 °F - 49.8 °F 38% 29.93 in 10.0 mi Calm Calm - N/A   Clear
11:55 AM 77.9 °F - 49.1 °F 36% 29.93 in 10.0 mi Calm Calm - N/A   Clear
12:15 PM 79.0 °F - 48.2 °F 34% 29.92 in 10.0 mi Calm Calm - N/A   Clear
12:35 PM 79.9 °F - 48.2 °F 33% 29.92 in 10.0 mi South 3.5 mph - N/A   Clear
12:55 PM 80.6 °F - 48.4 °F 32% 29.91 in 10.0 mi SE 4.6 mph - N/A   Clear
1:15 PM 81.0 °F - 47.7 °F 31% 29.91 in 10.0 mi Calm Calm - N/A   Clear
1:35 PM 81.5 °F - 47.3 °F 30% 29.90 in 10.0 mi SE 3.5 mph - N/A   Clear
1:55 PM 82.0 °F - 47.1 °F 29% 29.89 in 10.0 mi SE 6.9 mph - N/A   Clear
2:15 PM 82.8 °F - 48.2 °F 30% 29.88 in 10.0 mi South 5.8 mph - N/A   Clear
2:35 PM 83.3 °F - 49.6 °F 31% 29.87 in 10.0 mi SSE 5.8 mph - N/A   Clear
2:55 PM 83.8 °F - 49.1 °F 30% 29.86 in 10.0 mi South 5.8 mph - N/A   Clear
3:15 PM 83.5 °F - 49.8 °F 31% 29.86 in 10.0 mi South 5.8 mph - N/A   Clear
3:35 PM 83.7 °F - 51.4 °F 33% 29.85 in 10.0 mi SE 6.9 mph - N/A   Clear
3:55 PM 83.5 °F - 51.4 °F 33% 29.85 in 10.0 mi SE 6.9 mph - N/A   Clear
4:15 PM 83.7 °F - 52.0 °F 33% 29.85 in 10.0 mi South 8.1 mph - N/A   Clear
4:35 PM 84.2 °F 82.8 °F 54.1 °F 35% 29.84 in 10.0 mi SSE 5.8 mph - N/A   Clear
4:55 PM 83.5 °F 82.2 °F 54.1 °F 36% 29.84 in 10.0 mi SSE 6.9 mph - N/A   Clear
5:15 PM 83.7 °F 82.4 °F 54.1 °F 36% 29.84 in 10.0 mi SSE 3.5 mph - N/A   Clear
5:35 PM 83.3 °F 82.3 °F 55.0 °F 38% 29.84 in 10.0 mi SSE 4.6 mph - N/A   Clear
5:55 PM 82.9 °F 82.4 °F 56.8 °F 41% 29.85 in 10.0 mi SE 4.6 mph - N/A   Clear
6:15 PM 82.2 °F 82.0 °F 57.7 °F 43% 29.84 in 10.0 mi SSE 8.1 mph - N/A   Clear
6:35 PM 81.5 °F 81.6 °F 58.5 °F 45% 29.85 in 10.0 mi SSE 5.8 mph - N/A   Clear
6:55 PM 80.4 °F 81.0 °F 59.2 °F 48% 29.85 in 10.0 mi South 4.6 mph - N/A   Clear
7:15 PM 78.4 °F - 59.9 °F 53% 29.85 in 10.0 mi Calm Calm - N/A   Clear
7:35 PM 77.2 °F - 59.9 °F 55% 29.86 in 10.0 mi Calm Calm - N/A   Clear
7:55 PM 75.4 °F - 60.3 °F 59% 29.86 in 10.0 mi SE 3.5 mph - N/A   Clear
8:15 PM 74.3 °F - 61.0 °F 63% 29.86 in 10.0 mi Calm Calm - N/A   Clear
8:35 PM 73.4 °F - 61.2 °F 65% 29.86 in 10.0 mi Calm Calm - N/A   Clear
8:55 PM 72.5 °F - 61.2 °F 67% 29.87 in 10.0 mi SSE 3.5 mph - N/A   Clear
9:15 PM 72.3 °F - 61.7 °F 69% 29.87 in 10.0 mi South 3.5 mph - N/A   Clear
9:35 PM 71.8 °F - 61.7 °F 70% 29.88 in 10.0 mi Calm Calm - N/A   Clear
9:55 PM 70.2 °F - 61.7 °F 74% 29.88 in 10.0 mi Calm Calm - N/A   Clear
10:15 PM 69.8 °F - 61.7 °F 75% 29.89 in 10.0 mi Calm Calm - N/A   Clear
10:35 PM 70.5 °F - 61.3 °F 73% 29.89 in 10.0 mi Calm Calm - N/A   Clear
10:55 PM 70.5 °F - 61.3 °F 73% 29.89 in 10.0 mi South 3.5 mph - N/A   Clear
11:15 PM 70.3 °F - 61.2 °F 73% 29.89 in 10.0 mi South 3.5 mph - N/A   Clear
11:35 PM 70.0 °F - 61.0 °F 73% 29.89 in 10.0 mi Calm Calm - N/A   Clear
11:55 PM 70.0 °F - 61.2 °F 73% 29.88 in 10.0 mi SE 3.5 mph - N/A   Clear